Location: Overspoor
(51.4747°N, 5.6641°E)
Time: 11:30:58
(UTC+02:00)

KKS-1 - Pass Details

Date: 04 July 2022
Orbit: 634 x 649 km, 98.2° (Epoch: 14 August)

Event Time Altitude Azimuth Distance (km) Brightness Sun altitude
Rises 00:30:46 0° 9° (N) 2,980 ? -14.0°
Reaches altitude 10° 00:33:04 10° 3° (N) 2,063 ? -14.1°
Maximum altitude 00:37:18 43° 293° (WNW) 920 ? -14.3°
Drops below altitude 10° 00:41:30 10° 222° (SW) 2,042 ? -14.5°
Enters shadow 00:42:03 - 220° (SW) 2,251 ? -14.5°
